Weather History for KDET - August, 2013

Change the Weather History Date:

Thursday, August 1, 2013

  Actual Average Record
Temperature  
Mean Temperature 72 °F -  
Max Temperature 81 °F 83 °F 98 °F (1988)
Min Temperature 64 °F 65 °F 54 °F (1952)
Cooling Degree Days 7    
Growing Degree Days 22 (Base 50)    
Moisture  
Dew Point 60 °F    
Average Humidity 73    
Maximum Humidity 93    
Minimum Humidity 39    
Precipitation  
Precipitation 0.00 in - - ()
Sea Level Pressure  
Sea Level Pressure 29.89 in    
Wind  
Wind Speed 7 mph (WNW)    
Max Wind Speed 13 mph    
Max Gust Speed 17 mph    
Visibility 10 miles    
Events      
Averages and records for this station are not official NWS values.
T = Trace of Precipitation, MM = Missing Value Source: NWS Daily Summary

Daily Weather History Graph

Daily Weather History Graph

Search for Another Location

Airport or City:

Trip Planner

Search our weather history database for the weather conditions in past years. The results will help you decide how hot, cold, wet, or windy it might be!

Date:

Astronomy

Aug. 01, 2013 Rise Set
Actual Time 6:24 AM EDT 8:51 PM EDT
Civil Twilight 5:52 AM EDT 9:23 PM EDT
Nautical Twilight 5:13 AM EDT 10:02 PM EDT
Astronomical Twilight 4:28 AM EDT 10:46 PM EDT
Moon 1:59 AM EDT (8/1) 5:00 PM EDT (8/1)
Length of Visible Light 15h 30m
Length of Day
14h 26m
Waning Crescent, 23% of the Moon is Illuminated
Aug 1
Waning Crescent
Aug 6
New
Aug 14
First Quarter
Aug 20
Full
Aug 28
Last Quarter

Hourly Weather History & Observations

Time (EDT) Temp. Heat Index Dew Point Humidity Pressure Visibility Wind Dir Wind Speed Gust Speed Precip Events Conditions
12:01 AM 69.8 °F - 66.2 °F 88% 29.88 in 10.0 mi West 5.8 mph - N/A   Overcast
12:19 AM 69.8 °F - 66.2 °F 88% 29.87 in 9.0 mi West 4.6 mph - N/A   Overcast
12:26 AM 69.8 °F - 66.2 °F 88% 29.88 in 9.0 mi WNW 5.8 mph - N/A   Overcast
12:39 AM 69.8 °F - 64.4 °F 83% 29.89 in 10.0 mi WNW 6.9 mph - N/A   Overcast
12:53 AM 68.0 °F - 64.9 °F 90% 29.88 in 10.0 mi WNW 6.9 mph - N/A   Overcast
1:53 AM 66.9 °F - 63.0 °F 87% 29.87 in 10.0 mi NW 5.8 mph - N/A   Overcast
2:53 AM 66.0 °F - 63.0 °F 90% 29.87 in 10.0 mi WNW 6.9 mph - N/A   Mostly Cloudy
3:07 AM 66.2 °F - 62.6 °F 88% 29.88 in 10.0 mi West 6.9 mph - N/A   Scattered Clouds
3:53 AM 64.9 °F - 62.1 °F 90% 29.87 in 10.0 mi NW 5.8 mph - N/A   Clear
4:13 AM 66.2 °F - 62.6 °F 88% 29.88 in 10.0 mi WNW 6.9 mph - N/A   Mostly Cloudy
4:43 AM 66.2 °F - 62.6 °F 88% 29.88 in 10.0 mi West 8.1 mph - N/A   Scattered Clouds
4:53 AM 66.0 °F - 63.0 °F 90% 29.87 in 10.0 mi WNW 5.8 mph - N/A   Clear
5:53 AM 64.9 °F - 63.0 °F 93% 29.88 in 8.0 mi West 4.6 mph - N/A   Mostly Cloudy
6:53 AM 64.9 °F - 62.1 °F 90% 29.89 in 8.0 mi WNW 4.6 mph - N/A   Partly Cloudy
7:37 AM 66.2 °F - 62.6 °F 88% 29.90 in 9.0 mi West 8.1 mph - N/A   Mostly Cloudy
7:53 AM 66.0 °F - 61.0 °F 84% 29.90 in 10.0 mi West 9.2 mph - N/A   Overcast
8:32 AM 66.2 °F - 60.8 °F 83% 29.91 in 10.0 mi West 9.2 mph - N/A   Scattered Clouds
8:53 AM 66.9 °F - 61.0 °F 81% 29.90 in 10.0 mi West 6.9 mph - N/A   Clear
9:53 AM 70.0 °F - 62.1 °F 76% 29.90 in 10.0 mi WNW 9.2 mph - N/A   Partly Cloudy
10:53 AM 71.1 °F - 62.1 °F 73% 29.91 in 10.0 mi West 12.7 mph - N/A   Mostly Cloudy
11:24 AM 71.6 °F - 60.8 °F 69% 29.91 in 10.0 mi West 10.4 mph - N/A   Partly Cloudy
11:53 AM 72.0 °F - 61.0 °F 68% 29.90 in 10.0 mi WNW 8.1 mph - N/A   Clear
12:53 PM 75.9 °F - 59.0 °F 56% 29.90 in 10.0 mi West 11.5 mph 17.3 mph N/A   Clear
1:53 PM 79.0 °F - 57.0 °F 47% 29.90 in 10.0 mi NW 10.4 mph - N/A   Scattered Clouds
2:53 PM 78.1 °F - 52.0 °F 40% 29.88 in 10.0 mi NW 10.4 mph - N/A   Partly Cloudy
3:53 PM 79.0 °F - 53.1 °F 40% 29.88 in 10.0 mi Variable 5.8 mph 16.1 mph N/A   Partly Cloudy
4:53 PM 80.1 °F 79.9 °F 53.1 °F 39% 29.88 in 10.0 mi WNW 9.2 mph 17.3 mph N/A   Scattered Clouds
5:53 PM 73.9 °F - 53.1 °F 48% 29.89 in 10.0 mi NNW 9.2 mph - N/A   Mostly Cloudy
6:53 PM 75.0 °F - 54.0 °F 48% 29.90 in 10.0 mi WNW 5.8 mph - 0.00 in   Mostly Cloudy
7:53 PM 73.0 °F - 54.0 °F 51% 29.89 in 10.0 mi WNW 5.8 mph - N/A   Clear
8:53 PM 71.1 °F - 54.0 °F 55% 29.88 in 10.0 mi West 4.6 mph - N/A   Clear
9:53 PM 68.0 °F - 55.0 °F 63% 29.90 in 10.0 mi WSW 5.8 mph - N/A   Clear
10:53 PM 68.0 °F - 57.0 °F 68% 29.91 in 10.0 mi West 5.8 mph - N/A   Clear
11:53 PM 68.0 °F - 55.0 °F 63% 29.91 in 10.0 mi West 5.8 mph - N/A   Clear